Terminal Aerodrome Forecast
Issued by NWS

Current Version | Previous Version | Graphics & Text | Print | Product List | Glossary On
Versions: 1 2 3 4 5 6 7 8 9 10 11 12 13 14 15 16 17 18 19 20 21 22 23 24 25 26 27 28 29 30 31 32 33 34 35 36
000
FTUS41 KRNK 231140
TAFLWB
TAF
KLWB 231140Z 2312/2412 02004KT 3SM -DZ BR OVC005
      TEMPO 2312/2314 6SM -RA BR SCT002 OVC015
     FM231500 VRB03KT P6SM SCT007 OVC020
     FM240200 00000KT 4SM -RA BR OVC007 WS014/20031KT
     FM240600 12003KT 2SM RA BR OVC003 WS019/20040KT=

USA.gov is the U.S. government's official web portal to all federal, state and local government web resources and services.